contact:dominique.lefevre@mio.osupytheas.fr, maurice.libes@osupytheas.fr, didier.mallarino@osupytheas.fr
Project:EMSO http://www.emso-fr.org/EMSO-France
Depth: 2436.0 m
Title:EMSO Ligure Ouest : Data MII capteur AQUADOPP
Date,Latitude,Longitude,X_East,Y_North,Z_Up,Amplitude_X,Amplitude_Y,Amplitude_Z,Batterie,SoundSpeed,Heading,Pitch,Roll,Pressure,TIS,Speed,Direction
, degrees North, degrees East, m.s-1, m.s-1,m.s-1, 1, 1, 1, Volt, m.s-1, degree, degree, degree, dbar, degree_C, m.s-1, degree
2023-12-22T00:04:03,42.805,6.029,-0.028,0.02,-0.018,107.0,107.0,104.0,13.4,1505.2,351.1,-0.7,1.8,2471.444,13.29,0.034,305.5
2023-12-22T00:07:03,42.805,6.029,-0.019,0.015,-0.027,107.0,106.0,104.0,13.4,1505.2,340.7,-0.8,1.8,2471.449,13.29,0.024,308.3
2023-12-22T00:10:03,42.805,6.029,-0.022,0.017,0.011,108.0,108.0,104.0,13.4,1505.2,347.6,-0.7,1.8,2471.433,13.29,0.027,307.7
2023-12-22T00:13:03,42.805,6.029,-0.021,0.039,-0.003,108.0,107.0,104.0,13.4,1505.2,349.8,-0.8,1.8,2471.41,13.29,0.044,331.7
2023-12-22T00:16:03,42.805,6.029,-0.029,0.004,-0.02,108.0,106.0,105.0,13.4,1505.2,345.7,-0.8,1.8,2471.411,13.29,0.029,277.8
2023-12-22T00:19:03,42.805,6.029,-0.038,0.034,-0.025,107.0,107.0,105.0,13.3,1505.2,358.2,-0.7,1.8,2471.424,13.29,0.05,311.8
2023-12-22T00:22:03,42.805,6.029,-0.027,0.041,-0.022,107.0,107.0,104.0,13.4,1505.2,2.4,-0.8,1.8,2471.408,13.29,0.049,326.6
2023-12-22T00:25:03,42.805,6.029,-0.038,0.017,-0.044,107.0,107.0,103.0,13.4,1505.2,348.5,-0.8,1.8,2471.383,13.29,0.041,294.1
2023-12-22T00:28:03,42.805,6.029,-0.031,0.03,-0.032,107.0,107.0,104.0,13.3,1505.2,355.9,-0.8,1.8,2471.372,13.29,0.043,314.1
2023-12-22T00:31:03,42.805,6.029,-0.028,0.041,-0.02,109.0,107.0,104.0,13.3,1505.2,358.2,-0.7,1.8,2471.403,13.29,0.049,325.7
2023-12-22T00:34:03,42.805,6.029,-0.016,0.004,-0.034,108.0,107.0,105.0,13.3,1505.2,352.0,-0.8,1.8,2471.418,13.29,0.016,284.0
2023-12-22T00:37:03,42.805,6.029,-0.022,0.017,-0.027,107.0,108.0,104.0,13.4,1505.2,349.2,-0.7,1.9,2471.355,13.29,0.027,307.7
2023-12-22T00:40:03,42.805,6.029,-0.039,0.027,-0.047,108.0,106.0,103.0,13.4,1505.2,351.0,-0.8,1.8,2471.433,13.29,0.047,304.7
2023-12-22T00:43:03,42.805,6.029,-0.012,0.018,-0.035,108.0,107.0,104.0,13.4,1505.2,3.9,-0.8,1.8,2471.393,13.29,0.021,326.3
2023-12-22T00:46:03,42.805,6.029,-0.028,0.002,-0.028,108.0,106.0,105.0,13.4,1505.2,346.3,-0.8,1.8,2471.408,13.29,0.028,274.1
2023-12-22T00:49:03,42.805,6.029,-0.034,0.04,-0.032,107.0,106.0,104.0,13.4,1505.2,348.2,-0.8,1.8,2471.406,13.29,0.052,319.6
2023-12-22T00:52:03,42.805,6.029,-0.03,0.005,-0.019,107.0,106.0,104.0,13.3,1505.2,347.4,-0.8,1.8,2471.385,13.29,0.03,279.5
2023-12-22T00:55:03,42.805,6.029,-0.031,0.027,-0.028,107.0,107.0,104.0,13.3,1505.2,348.6,-0.8,1.8,2471.429,13.29,0.041,311.1
2023-12-22T00:58:03,42.805,6.029,-0.051,0.048,-0.011,107.0,107.0,104.0,13.4,1505.2,3.2,-0.8,1.8,2471.386,13.29,0.07,313.3
2023-12-22T01:04:03,42.805,6.029,-0.017,0.026,-0.049,108.0,107.0,106.0,13.4,1505.2,355.0,-0.8,1.8,2471.46,13.29,0.031,326.8
2023-12-22T01:07:03,42.805,6.029,-0.008,0.022,-0.028,108.0,106.0,104.0,13.4,1505.2,3.2,-0.8,1.8,2471.456,13.29,0.023,340.0
2023-12-22T01:10:03,42.805,6.029,-0.014,0.025,0.019,108.0,107.0,104.0,13.4,1505.2,344.0,-0.8,1.8,2471.429,13.29,0.028,330.7
2023-12-22T01:13:03,42.805,6.029,-0.025,0.027,-0.021,107.0,107.0,104.0,13.4,1505.2,358.4,-0.7,1.8,2471.46,13.29,0.036,317.2
2023-12-22T01:16:03,42.805,6.029,-0.011,0.016,-0.019,107.0,107.0,103.0,13.4,1505.2,358.2,-0.8,1.8,2471.41,13.29,0.019,325.5
2023-12-22T01:19:03,42.805,6.029,-0.015,0.03,-0.013,107.0,105.0,104.0,13.4,1505.2,343.3,-0.8,1.8,2471.414,13.29,0.033,333.4
2023-12-22T01:22:02,42.805,6.029,-0.014,0.036,-0.003,107.0,106.0,103.0,13.4,1505.2,352.9,-0.8,1.8,2471.388,13.29,0.038,338.8
2023-12-22T01:25:03,42.805,6.029,-0.019,0.028,-0.005,107.0,106.0,103.0,13.3,1505.2,349.8,-0.8,1.8,2471.448,13.29,0.033,325.8
2023-12-22T01:28:03,42.805,6.029,-0.029,0.046,-0.028,106.0,107.0,102.0,13.4,1505.2,3.8,-0.8,1.8,2471.481,13.29,0.054,327.8
2023-12-22T01:31:03,42.805,6.029,-0.023,0.033,-0.033,107.0,107.0,103.0,13.4,1505.2,348.0,-0.8,1.8,2471.378,13.29,0.04,325.1
2023-12-22T01:34:03,42.805,6.029,-0.021,0.042,-0.023,107.0,106.0,104.0,13.4,1505.2,344.4,-0.8,1.8,2471.43,13.29,0.046,333.4
2023-12-22T01:37:03,42.805,6.029,-0.026,0.035,-0.057,109.0,106.0,103.0,13.4,1505.2,0.0,-0.7,1.8,2471.378,13.29,0.043,323.4
2023-12-22T01:40:03,42.805,6.029,-0.023,0.026,-0.024,107.0,105.0,103.0,13.4,1505.2,353.8,-0.8,1.8,2471.44,13.29,0.034,318.5
2023-12-22T01:43:03,42.805,6.029,-0.017,0.027,0.004,108.0,106.0,104.0,13.4,1505.2,344.8,-0.7,1.8,2471.427,13.29,0.031,327.8
2023-12-22T01:46:03,42.805,6.029,-0.017,0.028,-0.02,107.0,107.0,104.0,13.4,1505.2,2.2,-0.8,1.8,2471.465,13.29,0.032,328.7
2023-12-22T01:49:03,42.805,6.029,-0.043,0.042,-0.035,107.0,107.0,104.0,13.4,1505.2,339.6,-0.8,1.9,2471.41,13.29,0.06,314.3
2023-12-22T01:52:03,42.805,6.029,-0.036,0.014,-0.035,107.0,106.0,104.0,13.4,1505.2,345.0,-0.8,1.8,2471.423,13.29,0.038,291.2
2023-12-22T01:55:03,42.805,6.029,0.0,0.019,-0.025,107.0,106.0,104.0,13.4,1505.2,3.1,-0.8,1.8,2471.414,13.29,0.019,0.0
2023-12-22T01:58:03,42.805,6.029,-0.02,0.03,0.005,107.0,107.0,104.0,13.4,1505.2,341.0,-0.8,1.8,2471.455,13.29,0.036,326.3
2023-12-22T02:04:03,42.805,6.029,-0.028,0.021,-0.002,108.0,106.0,104.0,13.4,1505.2,358.3,-0.8,1.8,2471.468,13.29,0.035,306.9
2023-12-22T02:07:03,42.805,6.029,-0.002,0.021,-0.014,107.0,108.0,104.0,13.4,1505.2,346.8,-0.8,1.8,2471.468,13.29,0.021,354.6
2023-12-22T02:10:03,42.805,6.029,-0.038,0.007,-0.025,108.0,107.0,104.0,13.4,1505.2,350.1,-0.8,1.8,2471.493,13.29,0.038,280.4
2023-12-22T02:13:03,42.805,6.029,-0.017,0.014,-0.008,107.0,108.0,105.0,13.4,1505.2,344.4,-0.8,1.8,2471.431,13.29,0.022,309.5
2023-12-22T02:16:03,42.805,6.029,-0.018,0.025,0.0,107.0,106.0,104.0,13.3,1505.2,347.4,-0.7,1.8,2471.445,13.29,0.03,324.2
2023-12-22T02:19:03,42.805,6.029,0.0,0.014,-0.01,108.0,106.0,104.0,13.4,1505.2,3.1,-0.8,1.8,2471.444,13.29,0.014,0.0
2023-12-22T02:22:03,42.805,6.029,-0.024,0.014,-0.003,108.0,107.0,104.0,13.4,1505.2,341.5,-0.8,1.8,2471.483,13.29,0.027,300.3
2023-12-22T02:25:03,42.805,6.029,-0.025,0.03,-0.029,109.0,107.0,104.0,13.4,1505.2,350.4,-0.8,1.8,2471.475,13.29,0.039,320.2
2023-12-22T02:28:03,42.805,6.029,-0.034,0.029,-0.019,108.0,108.0,105.0,13.3,1505.2,345.1,-0.7,1.8,2471.447,13.29,0.044,310.5
2023-12-22T02:31:03,42.805,6.029,-0.023,0.041,-0.017,107.0,107.0,104.0,13.3,1505.2,354.2,-0.8,1.8,2471.446,13.29,0.047,330.7
2023-12-22T02:34:03,42.805,6.029,-0.019,0.034,-0.052,107.0,107.0,104.0,13.3,1505.2,2.4,-0.8,1.8,2471.453,13.29,0.038,330.8
2023-12-22T02:37:03,42.805,6.029,-0.024,0.028,0.005,108.0,108.0,105.0,13.3,1505.2,341.3,-0.8,1.8,2471.443,13.29,0.036,319.4
2023-12-22T02:40:03,42.805,6.029,-0.011,0.011,-0.012,108.0,108.0,106.0,13.4,1505.2,348.5,-0.7,1.8,2471.429,13.29,0.015,315.0
2023-12-22T02:43:03,42.805,6.029,-0.031,0.011,-0.036,108.0,107.0,104.0,13.4,1505.2,357.7,-0.8,1.8,2471.454,13.29,0.032,289.5
2023-12-22T02:46:03,42.805,6.029,-0.023,0.026,-0.026,108.0,108.0,105.0,13.3,1505.2,352.1,-0.8,1.8,2471.421,13.29,0.034,318.5
2023-12-22T02:49:03,42.805,6.029,-0.03,0.017,-0.02,108.0,110.0,105.0,13.3,1505.2,359.1,-0.8,1.8,2471.453,13.29,0.034,299.5
2023-12-22T02:52:03,42.805,6.029,-0.019,0.025,0.0,108.0,108.0,105.0,13.3,1505.2,350.2,-0.7,1.8,2471.437,13.29,0.031,322.8
2023-12-22T02:55:03,42.805,6.029,-0.031,0.028,-0.001,110.0,107.0,105.0,13.4,1505.2,340.7,-0.7,1.8,2471.433,13.29,0.041,312.1
2023-12-22T02:58:03,42.805,6.029,-0.036,0.029,-0.048,108.0,109.0,105.0,13.4,1505.2,352.3,-0.8,1.8,2471.442,13.29,0.046,308.9
2023-12-22T03:04:03,42.805,6.029,-0.042,0.025,-0.019,109.0,109.0,105.0,13.3,1505.2,341.0,-0.7,1.8,2471.517,13.29,0.048,300.8
2023-12-22T03:07:03,42.805,6.029,-0.025,0.031,-0.036,109.0,109.0,105.0,13.4,1505.2,350.1,-0.8,1.8,2471.488,13.29,0.039,321.1
2023-12-22T03:10:03,42.805,6.029,-0.02,0.023,-0.018,110.0,109.0,106.0,13.3,1505.2,345.9,-0.8,1.8,2471.465,13.29,0.03,319.0
2023-12-22T03:13:03,42.805,6.029,-0.013,0.038,-0.031,109.0,109.0,105.0,13.4,1505.2,359.2,-0.8,1.8,2471.452,13.29,0.04,341.1
2023-12-22T03:16:03,42.805,6.029,-0.011,0.007,-0.012,110.0,108.0,106.0,13.3,1505.2,339.1,-0.8,1.8,2471.474,13.29,0.013,302.5
2023-12-22T03:19:03,42.805,6.029,-0.007,0.025,-0.04,110.0,110.0,106.0,13.3,1505.2,355.3,-0.8,1.8,2471.463,13.29,0.025,344.4
2023-12-22T03:22:03,42.805,6.029,-0.023,0.038,0.002,109.0,109.0,106.0,13.3,1505.2,4.0,-0.8,1.8,2471.449,13.29,0.044,328.8
2023-12-22T03:25:03,42.805,6.029,-0.017,0.018,0.01,110.0,107.0,105.0,13.4,1505.2,339.8,-0.8,1.8,2471.418,13.29,0.024,316.6
2023-12-22T03:28:03,42.805,6.029,0.004,0.015,0.01,108.0,108.0,106.0,13.4,1505.2,347.0,-0.8,1.8,2471.476,13.29,0.015,14.9
2023-12-22T03:31:03,42.805,6.029,-0.011,0.043,-0.019,109.0,109.0,106.0,13.4,1505.2,358.3,-0.7,1.8,2471.443,13.29,0.044,345.7
2023-12-22T03:34:03,42.805,6.029,-0.008,0.028,-0.026,109.0,110.0,105.0,13.4,1505.2,0.0,-0.8,1.8,2471.452,13.29,0.029,344.1
2023-12-22T03:37:03,42.805,6.029,-0.013,0.031,-0.018,110.0,108.0,106.0,13.4,1505.2,352.6,-0.8,1.8,2471.426,13.29,0.033,337.3
2023-12-22T03:40:03,42.805,6.029,-0.046,0.03,-0.034,109.0,109.0,107.0,13.4,1505.2,339.8,-0.8,1.8,2471.429,13.29,0.054,303.1
2023-12-22T03:43:03,42.805,6.029,-0.004,0.023,0.0,109.0,109.0,105.0,13.4,1505.2,347.6,-0.8,1.8,2471.442,13.29,0.023,350.1
2023-12-22T03:46:03,42.805,6.029,-0.006,0.026,-0.06,110.0,109.0,106.0,13.4,1505.2,0.0,-0.7,1.8,2471.435,13.29,0.026,347.0
2023-12-22T03:49:03,42.805,6.029,-0.006,0.012,0.018,109.0,108.0,105.0,13.4,1505.2,357.7,-0.8,1.8,2471.45,13.29,0.013,333.4
2023-12-22T03:52:03,42.805,6.029,-0.027,-0.001,-0.021,110.0,108.0,105.0,13.4,1505.2,339.1,-0.8,1.8,2471.421,13.29,0.027,267.9
2023-12-22T03:55:03,42.805,6.029,-0.007,0.011,-0.021,110.0,109.0,107.0,13.4,1505.2,355.7,-0.8,1.8,2471.446,13.29,0.013,327.5
2023-12-22T03:58:03,42.805,6.029,-0.002,0.024,-0.002,109.0,109.0,106.0,13.3,1505.2,348.0,-0.7,1.8,2471.441,13.29,0.024,355.2
2023-12-22T04:04:03,42.805,6.029,-0.017,0.02,-0.018,109.0,108.0,105.0,13.4,1505.2,341.3,-0.8,1.8,2471.471,13.29,0.026,319.6
2023-12-22T04:07:03,42.805,6.029,-0.017,0.022,-0.022,110.0,109.0,105.0,13.4,1505.2,352.8,-0.8,1.8,2471.457,13.29,0.027,322.3
2023-12-22T04:10:03,42.805,6.029,-0.029,0.021,-0.014,109.0,109.0,105.0,13.3,1505.2,345.9,-0.8,1.8,2471.465,13.29,0.035,305.9
2023-12-22T04:13:03,42.805,6.029,-0.014,0.032,-0.008,108.0,108.0,104.0,13.4,1505.2,0.8,-0.8,1.8,2471.478,13.29,0.034,336.4
2023-12-22T04:16:03,42.805,6.029,-0.02,0.011,-0.039,109.0,109.0,105.0,13.3,1505.2,354.7,-0.8,1.8,2471.46,13.29,0.022,298.8
2023-12-22T04:19:03,42.805,6.029,-0.038,0.037,-0.031,109.0,109.0,105.0,13.4,1505.2,341.5,-0.7,1.8,2471.462,13.29,0.053,314.2
2023-12-22T04:22:03,42.805,6.029,-0.02,0.007,-0.008,109.0,107.0,104.0,13.4,1505.2,345.2,-0.7,1.8,2471.439,13.29,0.021,289.3
2023-12-22T04:25:03,42.805,6.029,-0.009,0.024,-0.013,109.0,108.0,107.0,13.3,1505.2,1.6,-0.8,1.8,2471.451,13.29,0.025,339.4
2023-12-22T04:28:03,42.805,6.029,-0.002,0.026,-0.019,108.0,108.0,106.0,13.3,1505.2,341.8,-0.8,1.8,2471.43,13.29,0.026,355.6
2023-12-22T04:31:03,42.805,6.029,-0.014,0.034,-0.002,109.0,108.0,105.0,13.4,1505.2,353.8,-0.8,1.8,2471.429,13.29,0.036,337.6
2023-12-22T04:34:03,42.805,6.029,-0.015,0.023,-0.005,108.0,107.0,106.0,13.4,1505.2,355.6,-0.7,1.8,2471.433,13.29,0.027,326.9
2023-12-22T04:37:03,42.805,6.029,-0.008,0.028,0.007,109.0,109.0,106.0,13.3,1505.2,356.7,-0.8,1.8,2471.457,13.29,0.029,344.1
2023-12-22T04:40:03,42.805,6.029,-0.006,0.046,-0.01,108.0,110.0,106.0,13.4,1505.2,352.5,-0.8,1.8,2471.38,13.29,0.046,352.6
2023-12-22T04:43:03,42.805,6.029,-0.003,0.019,-0.024,109.0,110.0,105.0,13.4,1505.2,352.1,-0.8,1.8,2471.419,13.29,0.019,351.0
2023-12-22T04:46:03,42.805,6.029,-0.029,0.029,-0.043,110.0,109.0,104.0,13.4,1505.2,352.3,-0.8,1.8,2471.432,13.29,0.041,315.0
2023-12-22T04:49:03,42.805,6.029,-0.029,0.032,-0.021,110.0,109.0,105.0,13.3,1505.2,352.9,-0.8,1.8,2471.446,13.29,0.043,317.8
2023-12-22T04:52:03,42.805,6.029,-0.02,0.022,-0.022,109.0,109.0,105.0,13.3,1505.2,339.4,-0.8,1.8,2471.41,13.29,0.029,317.7
2023-12-22T04:55:03,42.805,6.029,-0.02,0.008,-0.037,110.0,109.0,106.0,13.3,1505.2,343.1,-0.8,1.8,2471.441,13.29,0.021,291.8
2023-12-22T04:58:03,42.805,6.029,-0.027,0.036,-0.008,108.0,110.0,105.0,13.4,1505.2,355.7,-0.8,1.8,2471.438,13.29,0.045,323.1
2023-12-22T05:04:03,42.805,6.029,-0.02,0.039,-0.01,110.0,109.0,105.0,13.4,1505.2,356.5,-0.7,1.8,2471.491,13.29,0.043,332.9
2023-12-22T05:07:03,42.805,6.029,-0.015,0.026,-0.022,108.0,108.0,107.0,13.3,1505.2,349.4,-0.8,1.8,2471.488,13.29,0.03,330.0
2023-12-22T05:10:03,42.805,6.029,-0.025,0.043,-0.035,109.0,109.0,106.0,13.4,1505.2,3.9,-0.7,1.8,2471.484,13.29,0.049,329.8
2023-12-22T05:13:03,42.805,6.029,-0.018,0.016,-0.011,110.0,109.0,107.0,13.3,1505.2,350.2,-0.8,1.8,2471.435,13.29,0.024,311.6
2023-12-22T05:16:03,42.805,6.029,-0.011,0.045,-0.005,109.0,108.0,107.0,13.4,1505.2,350.5,-0.8,1.8,2471.461,13.29,0.046,346.3
2023-12-22T05:19:03,42.805,6.029,-0.003,0.029,-0.023,109.0,109.0,108.0,13.4,1505.2,359.1,-0.8,1.8,2471.449,13.29,0.029,354.1
2023-12-22T05:22:03,42.805,6.029,-0.008,0.01,0.001,108.0,109.0,105.0,13.4,1505.2,350.9,-0.7,1.8,2471.479,13.29,0.012,321.3
2023-12-22T05:25:03,42.805,6.029,-0.002,0.024,-0.028,109.0,108.0,105.0,13.4,1505.2,345.7,-0.8,1.8,2471.449,13.29,0.024,355.2
2023-12-22T05:28:03,42.805,6.029,-0.026,0.039,-0.036,108.0,108.0,105.0,13.4,1505.2,2.2,-0.8,1.8,2471.465,13.29,0.046,326.3
2023-12-22T05:31:03,42.805,6.029,-0.013,0.005,-0.029,109.0,109.0,106.0,13.3,1505.2,357.7,-0.8,1.8,2471.462,13.29,0.013,291.0
2023-12-22T05:34:03,42.805,6.029,-0.019,0.028,-0.003,109.0,108.0,106.0,13.3,1505.2,346.5,-0.7,1.8,2471.452,13.29,0.033,325.8
2023-12-22T05:37:03,42.805,6.029,0.003,0.023,-0.017,108.0,108.0,105.0,13.4,1505.2,353.0,-0.8,1.8,2471.426,13.29,0.023,7.4
2023-12-22T05:40:03,42.805,6.029,-0.009,0.034,-0.005,108.0,108.0,106.0,13.4,1505.2,3.8,-0.8,1.8,2471.445,13.29,0.035,345.2
2023-12-22T05:43:03,42.805,6.029,0.003,0.007,-0.005,109.0,108.0,104.0,13.3,1505.2,341.8,-0.8,1.8,2471.418,13.29,0.007,23.2
2023-12-22T05:46:03,42.805,6.029,-0.014,0.03,-0.008,109.0,108.0,105.0,13.4,1505.2,347.7,-0.8,1.8,2471.456,13.29,0.033,335.0
2023-12-22T05:49:03,42.805,6.029,0.006,0.017,-0.024,109.0,109.0,106.0,13.4,1505.2,1.6,-0.7,1.8,2471.438,13.29,0.018,19.4
2023-12-22T05:52:03,42.805,6.029,-0.006,0.003,-0.024,109.0,109.0,105.0,13.4,1505.2,2.2,-0.7,1.8,2471.426,13.29,0.006,296.6
2023-12-22T05:55:03,42.805,6.029,-0.023,0.013,0.0,111.0,110.0,106.0,13.4,1505.2,339.6,-0.8,1.8,2471.435,13.29,0.026,299.5
2023-12-22T05:58:03,42.805,6.029,-0.007,0.018,-0.003,109.0,109.0,104.0,13.3,1505.2,350.6,-0.8,1.8,2471.437,13.29,0.019,338.8
2023-12-22T06:04:03,42.805,6.029,0.007,0.015,-0.027,109.0,109.0,105.0,13.4,1505.2,357.4,-0.8,1.8,2471.461,13.29,0.016,25.0
2023-12-22T06:07:03,42.805,6.029,-0.011,0.02,-0.04,110.0,107.0,105.0,13.3,1505.2,358.4,-0.7,1.8,2471.454,13.29,0.022,331.2
2023-12-22T06:10:03,42.805,6.029,-0.019,0.015,-0.028,108.0,108.0,106.0,13.3,1505.2,353.9,-0.8,1.8,2471.462,13.29,0.024,308.3
2023-12-22T06:13:03,42.805,6.029,-0.015,0.013,-0.022,109.0,108.0,107.0,13.3,1505.2,347.6,-0.7,1.8,2471.431,13.29,0.019,310.9
2023-12-22T06:16:03,42.805,6.029,-0.031,0.035,-0.017,108.0,107.0,106.0,13.3,1505.2,357.3,-0.7,1.8,2471.49,13.29,0.046,318.5
2023-12-22T06:19:03,42.805,6.029,-0.015,0.004,0.009,108.0,107.0,105.0,13.4,1505.2,341.3,-0.8,1.8,2471.461,13.29,0.015,284.9
2023-12-22T06:22:03,42.805,6.029,-0.027,0.033,-0.022,108.0,107.0,105.0,13.3,1505.2,354.8,-0.8,1.8,2471.476,13.29,0.042,320.7
2023-12-22T06:25:03,42.805,6.029,-0.013,0.026,-0.012,108.0,108.0,105.0,13.3,1505.2,357.4,-0.8,1.8,2471.426,13.29,0.029,333.4
2023-12-22T06:28:03,42.805,6.029,-0.007,0.03,-0.011,108.0,108.0,104.0,13.3,1505.2,3.0,-0.8,1.8,2471.434,13.29,0.03,346.9
2023-12-22T06:31:03,42.805,6.029,-0.026,0.024,-0.014,108.0,108.0,104.0,13.3,1505.2,339.5,-0.8,1.8,2471.429,13.29,0.035,312.7
2023-12-22T06:34:03,42.805,6.029,-0.008,0.015,-0.018,108.0,108.0,108.0,13.4,1505.2,350.5,-0.7,1.8,2471.425,13.29,0.017,331.9
2023-12-22T06:37:03,42.805,6.029,0.005,0.008,-0.019,108.0,108.0,105.0,13.4,1505.2,349.2,-0.8,1.8,2471.429,13.29,0.009,32.0
2023-12-22T06:40:03,42.805,6.029,-0.022,0.012,0.011,108.0,108.0,106.0,13.4,1505.2,348.0,-0.8,1.8,2471.442,13.29,0.025,298.6
2023-12-22T06:43:03,42.805,6.029,-0.003,0.012,-0.024,109.0,108.0,106.0,13.3,1505.2,3.2,-0.7,1.8,2471.447,13.29,0.012,346.0
2023-12-22T06:46:03,42.805,6.029,-0.034,0.019,-0.015,109.0,108.0,105.0,13.4,1505.2,342.3,-0.7,1.8,2471.425,13.29,0.038,299.2
2023-12-22T06:49:03,42.805,6.029,-0.02,0.015,-0.005,110.0,107.0,104.0,13.4,1505.2,357.5,-0.7,1.8,2471.43,13.29,0.025,306.9
2023-12-22T06:52:03,42.805,6.029,-0.004,0.023,0.011,109.0,108.0,105.0,13.4,1505.2,3.1,-0.8,1.8,2471.424,13.29,0.023,350.1
2023-12-22T06:55:03,42.805,6.029,0.006,0.026,0.0,107.0,108.0,105.0,13.4,1505.2,344.2,-0.8,1.8,2471.39,13.29,0.026,13.0
2023-12-22T06:58:03,42.805,6.029,-0.003,0.02,-0.009,109.0,107.0,106.0,13.3,1505.2,352.3,-0.8,1.8,2471.4,13.29,0.02,351.5
2023-12-22T07:04:03,42.805,6.029,-0.004,0.028,-0.007,108.0,107.0,105.0,13.4,1505.2,354.8,-0.8,1.8,2471.46,13.29,0.028,351.9
2023-12-22T07:07:03,42.805,6.029,0.011,0.006,-0.014,108.0,109.0,105.0,13.4,1505.2,3.9,-0.8,1.8,2471.46,13.29,0.012,61.4
2023-12-22T07:10:03,42.805,6.029,-0.012,0.007,-0.049,109.0,108.0,104.0,13.3,1505.2,339.0,-0.8,1.8,2471.428,13.29,0.013,300.3
2023-12-22T07:13:03,42.805,6.029,-0.018,0.015,-0.023,109.0,108.0,105.0,13.4,1505.2,348.3,-0.8,1.8,2471.408,13.29,0.023,309.8
2023-12-22T07:16:03,42.805,6.029,-0.011,0.009,-0.037,108.0,109.0,105.0,13.4,1505.2,0.8,-0.8,1.8,2471.43,13.29,0.014,309.3
2023-12-22T07:19:03,42.805,6.029,-0.01,0.011,-0.028,109.0,107.0,105.0,13.4,1505.2,358.4,-0.8,1.8,2471.42,13.29,0.014,317.7
2023-12-22T07:22:03,42.805,6.029,-0.021,-0.002,-0.018,109.0,109.0,104.0,13.4,1505.2,349.6,-0.8,1.8,2471.419,13.29,0.021,264.6
2023-12-22T07:25:03,42.805,6.029,-0.023,0.018,-0.02,108.0,107.0,104.0,13.4,1505.2,359.1,-0.7,1.8,2471.408,13.29,0.029,308.0
2023-12-22T07:28:03,42.805,6.029,-0.013,0.017,-0.006,108.0,108.0,104.0,13.4,1505.2,2.3,-0.8,1.8,2471.404,13.29,0.021,322.6
2023-12-22T07:31:03,42.805,6.029,-0.021,0.011,-0.037,108.0,108.0,105.0,13.3,1505.2,348.0,-0.8,1.8,2471.38,13.29,0.023,297.6
2023-12-22T07:34:03,42.805,6.029,-0.017,0.024,0.006,109.0,107.0,106.0,13.4,1505.2,351.5,-0.8,1.8,2471.37,13.29,0.029,324.7
2023-12-22T07:37:03,42.805,6.029,-0.026,0.007,-0.021,109.0,109.0,105.0,13.4,1505.2,3.0,-0.8,1.8,2471.392,13.29,0.026,285.1
2023-12-22T07:40:03,42.805,6.029,-0.014,0.023,-0.01,109.0,107.0,104.0,13.3,1505.2,4.1,-0.8,1.8,2471.394,13.29,0.026,328.7
2023-12-22T07:43:03,42.805,6.029,-0.024,0.006,-0.008,108.0,107.0,105.0,13.4,1505.2,348.8,-0.8,1.8,2471.401,13.29,0.024,284.0
2023-12-22T07:46:03,42.805,6.029,-0.003,0.027,-0.002,109.0,108.0,104.0,13.3,1505.2,352.9,-0.8,1.8,2471.391,13.29,0.027,353.7
2023-12-22T07:49:03,42.805,6.029,-0.028,0.009,-0.023,109.0,105.0,105.0,13.4,1505.2,345.9,-0.8,1.8,2471.359,13.29,0.029,287.8
2023-12-22T07:52:03,42.805,6.029,-0.02,0.024,-0.02,109.0,108.0,107.0,13.4,1505.2,348.5,-0.8,1.8,2471.398,13.29,0.031,320.2
2023-12-22T07:55:03,42.805,6.029,-0.014,0.027,-0.033,108.0,108.0,105.0,13.4,1505.2,0.8,-0.8,1.8,2471.393,13.29,0.03,332.6
2023-12-22T07:58:03,42.805,6.029,-0.014,0.004,-0.021,108.0,107.0,105.0,13.3,1505.2,345.4,-0.8,1.8,2471.39,13.29,0.014,285.9
2023-12-22T08:04:03,42.805,6.029,-0.013,0.009,0.0,108.0,107.0,105.0,13.4,1505.2,346.5,-0.8,1.8,2471.415,13.29,0.015,304.7
2023-12-22T08:07:03,42.805,6.029,-0.029,0.004,-0.02,108.0,108.0,103.0,13.3,1505.2,348.2,-0.8,1.8,2471.444,13.29,0.029,277.8
2023-12-22T08:10:03,42.805,6.029,-0.008,0.001,-0.022,107.0,108.0,106.0,13.4,1505.2,3.1,-0.8,1.8,2471.374,13.29,0.008,277.1
2023-12-22T08:13:03,42.805,6.029,-0.013,0.007,-0.041,108.0,108.0,104.0,13.4,1505.2,347.6,-0.7,1.8,2471.435,13.29,0.014,298.3
2023-12-22T08:16:03,42.805,6.029,-0.001,-0.02,-0.03,109.0,107.0,104.0,13.4,1505.2,350.9,-0.8,1.8,2471.42,13.29,0.02,182.9
2023-12-22T08:19:03,42.805,6.029,-0.018,0.002,-0.005,108.0,108.0,105.0,13.3,1505.2,359.2,-0.7,1.8,2471.394,13.29,0.018,276.3
2023-12-22T08:22:03,42.805,6.029,-0.03,0.009,-0.016,108.0,108.0,104.0,13.4,1505.2,340.7,-0.8,1.8,2471.404,13.29,0.031,286.7
2023-12-22T08:25:03,42.805,6.029,0.003,-0.005,-0.018,109.0,108.0,105.0,13.4,1505.2,353.7,-0.8,1.8,2471.395,13.29,0.005,149.0
2023-12-22T08:28:03,42.805,6.029,-0.009,0.008,-0.008,108.0,107.0,105.0,13.4,1505.2,349.4,-0.8,1.8,2471.398,13.29,0.012,311.6
2023-12-22T08:31:03,42.805,6.029,-0.034,-0.005,-0.017,108.0,108.0,104.0,13.3,1505.2,1.6,-0.7,1.8,2471.359,13.29,0.034,261.6
2023-12-22T08:34:03,42.805,6.029,-0.024,0.01,-0.01,108.0,106.0,104.0,13.3,1505.2,345.2,-0.7,1.8,2471.383,13.29,0.026,292.6
2023-12-22T08:37:03,42.805,6.029,-0.007,0.004,-0.045,109.0,106.0,105.0,13.4,1505.2,343.0,-0.7,1.8,2471.357,13.29,0.008,299.7
2023-12-22T08:40:03,42.805,6.029,-0.028,0.015,-0.023,107.0,108.0,104.0,13.4,1505.2,346.1,-0.8,1.8,2471.414,13.29,0.031,298.2
2023-12-22T08:43:03,42.805,6.029,0.011,0.011,-0.011,108.0,109.0,105.0,13.4,1505.2,3.1,-0.7,1.8,2471.407,13.29,0.015,45.0
2023-12-22T08:46:03,42.805,6.029,-0.017,0.0,0.001,107.0,106.0,104.0,13.4,1505.2,341.3,-0.8,1.8,2471.391,13.29,0.017,270.0
2023-12-22T08:49:03,42.805,6.029,-0.001,0.001,-0.021,109.0,107.0,104.0,13.4,1505.2,350.6,-0.7,1.8,2471.35,13.29,0.001,315.0
2023-12-22T08:52:03,42.805,6.029,-0.007,0.003,-0.013,108.0,107.0,105.0,13.3,1505.2,354.8,-0.8,1.8,2471.372,13.29,0.007,293.2
2023-12-22T08:55:03,42.805,6.029,-0.014,-0.001,-0.013,108.0,109.0,105.0,13.4,1505.2,358.5,-0.8,1.8,2471.384,13.29,0.014,265.9
2023-12-22T08:58:03,42.805,6.029,-0.017,0.009,0.003,108.0,108.0,105.0,13.3,1505.2,345.5,-0.8,1.8,2471.379,13.29,0.019,297.9
2023-12-22T09:04:03,42.805,6.029,-0.008,-0.01,-0.014,109.0,108.0,105.0,13.3,1505.2,349.9,-0.8,1.8,2471.429,13.29,0.012,218.7
2023-12-22T09:07:03,42.805,6.029,-0.04,0.004,-0.029,109.0,109.0,105.0,13.4,1505.2,346.3,-0.7,1.9,2471.42,13.29,0.04,275.7
2023-12-22T09:10:03,42.805,6.029,-0.005,0.0,0.0,108.0,109.0,105.0,13.4,1505.2,3.1,-0.7,1.8,2471.404,13.29,0.005,270.0
2023-12-22T09:13:03,42.805,6.029,-0.032,0.023,-0.001,109.0,107.0,105.0,13.4,1505.2,0.7,-0.8,1.8,2471.406,13.29,0.039,305.7
2023-12-22T09:16:03,42.805,6.029,-0.016,-0.009,-0.027,110.0,108.0,105.0,13.4,1505.2,341.0,-0.7,1.8,2471.416,13.29,0.018,240.6
2023-12-22T09:19:03,42.805,6.029,-0.016,0.0,-0.029,108.0,108.0,105.0,13.3,1505.2,348.2,-0.8,1.8,2471.378,13.29,0.016,270.0
2023-12-22T09:22:03,42.805,6.029,-0.01,0.0,0.014,109.0,108.0,105.0,13.4,1505.2,347.6,-0.8,1.8,2471.363,13.29,0.01,270.0
2023-12-22T09:25:03,42.805,6.029,-0.026,-0.012,-0.05,108.0,108.0,107.0,13.4,1505.2,346.7,-0.7,1.8,2471.37,13.29,0.028,245.2
2023-12-22T09:28:03,42.805,6.029,-0.007,0.012,-0.028,109.0,109.0,106.0,13.3,1505.2,3.2,-0.7,1.8,2471.379,13.29,0.013,329.7
2023-12-22T09:31:03,42.805,6.029,-0.017,0.0,-0.024,108.0,110.0,105.0,13.4,1505.2,342.2,-0.8,1.8,2471.405,13.29,0.017,270.0
2023-12-22T09:34:03,42.805,6.029,-0.026,-0.007,0.01,108.0,108.0,104.0,13.4,1505.2,353.0,-0.8,1.8,2471.397,13.29,0.026,254.9
2023-12-22T09:37:03,42.805,6.029,-0.024,-0.008,0.0,109.0,108.0,106.0,13.4,1505.2,356.0,-0.8,1.8,2471.386,13.29,0.025,251.6
2023-12-22T09:40:03,42.805,6.029,-0.022,-0.016,-0.035,110.0,107.0,104.0,13.3,1505.2,349.4,-0.7,1.8,2471.324,13.29,0.027,234.0
2023-12-22T09:43:03,42.805,6.029,-0.011,-0.004,-0.028,109.0,109.0,104.0,13.3,1505.2,352.2,-0.8,1.8,2471.368,13.29,0.011,250.0
2023-12-22T09:46:03,42.805,6.029,-0.017,-0.005,-0.021,108.0,109.0,105.0,13.3,1505.2,357.4,-0.8,1.8,2471.373,13.29,0.017,253.6
2023-12-22T09:49:03,42.805,6.029,-0.025,0.017,-0.012,109.0,108.0,105.0,13.3,1505.2,351.5,-0.8,1.8,2471.363,13.29,0.03,304.2
2023-12-22T09:52:03,42.805,6.029,-0.016,0.002,0.0,109.0,108.0,105.0,13.4,1505.2,2.5,-0.8,1.8,2471.394,13.29,0.016,277.1
2023-12-22T09:55:03,42.805,6.029,-0.011,0.02,-0.017,108.0,107.0,105.0,13.4,1505.2,341.0,-0.8,1.8,2471.351,13.29,0.022,331.2